Weather History for Jackson, WY

Change the Weather History Date:

Monday, August 26, 2013

  Actual Average Record
Temperature  
Mean Temperature 63 °F -  
Max Temperature 75 °F 76 °F 89 °F (1988)
Min Temperature 51 °F 37 °F 22 °F (1992)
Degree Days  
Heating Degree Days 2    
Growing Degree Days 13 (Base 50)    
Moisture  
Dew Point 48 °F    
Average Humidity 67    
Maximum Humidity 88    
Minimum Humidity 34    
Precipitation  
Precipitation 0.00 in - - ()
Sea Level Pressure  
Sea Level Pressure 30.25 in    
Wind  
Wind Speed 4 mph (NNW)    
Max Wind Speed 15 mph    
Max Gust Speed 17 mph    
Visibility 10 miles    
Events Thunderstorm    
Averages and records for this station are not official NWS values.
T = Trace of Precipitation, MM = Missing Value Source: NWS Daily Summary

Daily Weather History Graph

Daily Weather History Graph

Search for Another Location

Airport:

Trip Planner

Search our weather history database for the weather conditions in past years. The results will help you decide how hot, cold, wet, or windy it might be!

Date:

Astronomy

Aug. 26, 2013 Rise Set
Actual Time 6:40 AM MDT 8:08 PM MDT
Civil Twilight 6:10 AM MDT 8:38 PM MDT
Nautical Twilight 5:34 AM MDT 9:14 PM MDT
Astronomical Twilight 4:55 AM MDT 9:52 PM MDT
Moon 11:07 PM MDT (8/26) 12:58 PM MDT (8/26)
Length of Visible Light 14h 27m
Length of Day
13h 27m
Waning Gibbous, 66% of the Moon is Illuminated
Aug 26
Waning Gibbous
Aug 28
Last Quarter
Sep 5
New
Sep 12
First Quarter
Sep 19
Full

Hourly Weather History & Observations

Time (MDT) Temp. Dew Point Humidity Pressure Visibility Wind Dir Wind Speed Gust Speed Precip Events Conditions
12:35 AM 57.2 °F 46.4 °F 67% 30.20 in 10.0 mi ENE 4.6 mph - N/A   Clear
12:55 AM 57.2 °F 48.2 °F 72% 30.21 in 10.0 mi North 3.5 mph - N/A   Clear
1:15 AM 55.4 °F 48.2 °F 77% 30.21 in 10.0 mi Calm Calm - N/A   Partly Cloudy
1:35 AM 55.4 °F 48.2 °F 77% 30.22 in 10.0 mi NNW 5.8 mph - N/A   Mostly Cloudy
1:55 AM 53.6 °F 48.2 °F 82% 30.21 in 10.0 mi NNW 4.6 mph - N/A   Scattered Clouds
2:15 AM 55.4 °F 48.2 °F 77% 30.22 in 10.0 mi North 3.5 mph - N/A   Scattered Clouds
2:35 AM 55.4 °F 50.0 °F 82% 30.22 in 10.0 mi Calm Calm - N/A   Mostly Cloudy
2:55 AM 57.2 °F 48.2 °F 72% 30.22 in 10.0 mi Calm Calm - N/A   Scattered Clouds
3:35 AM 59.0 °F 48.2 °F 67% 30.22 in 10.0 mi East 6.9 mph - N/A   Partly Cloudy
3:55 AM 55.4 °F 48.2 °F 77% 30.23 in 10.0 mi West 5.8 mph - N/A   Clear
4:15 AM 53.6 °F 48.2 °F 82% 30.23 in 10.0 mi NNE 5.8 mph - N/A   Partly Cloudy
4:35 AM 55.4 °F 48.2 °F 77% 30.23 in 10.0 mi NE 8.1 mph - N/A   Partly Cloudy
5:15 AM 53.6 °F 48.2 °F 82% 30.24 in 10.0 mi North 5.8 mph - N/A   Clear
5:35 AM 51.8 °F 48.2 °F 88% 30.25 in 10.0 mi North 5.8 mph - N/A   Clear
5:56 AM 51.8 °F 46.4 °F 82% 30.25 in 10.0 mi Calm Calm - N/A   Clear
6:15 AM 51.8 °F 46.4 °F 82% 30.26 in 10.0 mi Calm Calm - N/A   Clear
6:35 AM 51.8 °F 46.4 °F 82% 30.27 in 10.0 mi NE 3.5 mph - N/A   Scattered Clouds
6:51 AM 51.8 °F 48.2 °F 88% 30.29 in 10.0 mi Calm Calm - N/A   Scattered Clouds
7:52 AM 53.6 °F 48.2 °F 82% 30.29 in 10.0 mi North 4.6 mph - N/A   Scattered Clouds
8:54 AM 60.8 °F 48.2 °F 63% 30.29 in 10.0 mi North 3.5 mph - N/A   Scattered Clouds
9:51 AM 64.4 °F 46.4 °F 52% 30.29 in 10.0 mi Calm Calm - N/A   Scattered Clouds
10:52 AM 68.0 °F 46.4 °F 46% 30.29 in 10.0 mi Calm Calm - N/A   Scattered Clouds
11:51 AM 71.6 °F 48.2 °F 43% 30.28 in 10.0 mi SSW 4.6 mph - N/A   Scattered Clouds
12:51 PM 73.4 °F 46.4 °F 38% 30.26 in 10.0 mi South 11.5 mph - N/A   Mostly Cloudy
1:58 PM 73.4 °F 44.6 °F 36% 30.24 in 10.0 mi South 5.8 mph - N/A   Scattered Clouds
2:53 PM 75.2 °F 44.6 °F 34% 30.23 in 10.0 mi South 9.2 mph - N/A   Scattered Clouds
3:52 PM 75.2 °F 44.6 °F 34% 30.21 in 10.0 mi South 11.5 mph 17.3 mph N/A Thunderstorm Mostly Cloudy
4:59 PM 71.6 °F 42.8 °F 35% 30.23 in 10.0 mi SE 15.0 mph - N/A Thunderstorm Mostly Cloudy
5:57 PM 68.0 °F 48.2 °F 49% 30.24 in 10.0 mi SSW 12.7 mph - N/A   Scattered Clouds
6:54 PM 66.2 °F 48.2 °F 52% 30.24 in 10.0 mi SW 8.1 mph - N/A   Partly Cloudy
7:55 PM 64.4 °F 50.0 °F 59% 30.25 in 10.0 mi SSW 5.8 mph - N/A   Mostly Cloudy
8:51 PM 62.6 °F 50.0 °F 63% 30.25 in 10.0 mi Calm Calm - N/A   Clear
8:55 PM 62.6 °F 50.0 °F 63% 30.26 in 10.0 mi Calm Calm - N/A   Clear
9:15 PM 62.6 °F 50.0 °F 63% 30.25 in 10.0 mi West 3.5 mph - N/A   Partly Cloudy
9:35 PM 59.0 °F 50.0 °F 72% 30.26 in 10.0 mi NE 3.5 mph - N/A   Clear
9:55 PM 57.2 °F 48.2 °F 72% 30.26 in 10.0 mi Calm Calm - N/A   Clear
10:15 PM 60.8 °F 48.2 °F 63% 30.27 in 10.0 mi WSW 3.5 mph - N/A   Partly Cloudy
10:55 PM 57.2 °F 48.2 °F 72% 30.27 in 10.0 mi Calm Calm - N/A   Scattered Clouds
11:15 PM 55.4 °F 48.2 °F 77% 30.27 in 10.0 mi Calm Calm - N/A   Clear
11:55 PM 53.6 °F 48.2 °F 82% 30.27 in 10.0 mi West 4.6 mph - N/A   Clear